星链-3918 (STARLINK-3918 )

导读

STARLINK-3918是美国太空探索技术公司(SpaceX)“星链”星座的卫星,于2022年5月6日发射入轨,属于星链组网卫星,旨在构建全球卫星互联网星座,为全球多地提供低延迟、高速率的宽带互联网服务,是星链大规模星座建设中的一员。

基本信息
目录编号:
52486
目录名称:
STARLINK-3918
国际标识:
2022-049AM
轨道中心:
EARTH
卫星名称:
星链-3918
卫星全名:
星链-3918 (STARLINK-3918 )
卫星状态:
在轨 (已飞行1589 天)
发射日期:
2022-05-06 UTC
国别 :
美国 (US)
星等 :
--
该卫星已列入 空间交会检测服务 Space Conjunction Data Service (SCDS) ,当前飞行风险评估等级: 无高风险
轨道信息
数据来源 国际轨道数据
星历时间: 2026-09-11T18:31:55+0800
10小时前
查看轨道信息
半长轴: 6840.879km
偏心率: 0.0001175
轨道倾角: 53.160°
近地点辐角 85.592°
升交点赤经 295.731°
平近点角 274.522°
近地点: 461.938km
远地点: 463.546km
周期: 93.849分钟
每日圈数: 15.343872
详细信息
固有亮度:
5
最大亮度:
2.5
卫星平台:
Starlink v1.5
覆盖范围:
全球
运营商:
太空探索技术公司
运营商所在国:
美国
制造商(研发单位):
太空探索技术公司
制造商所在国:
美国
使用方式:
暂无
卫星简介
星链(Starlink)计划是由太空探索技术公司(SpaceX)提出的一个巨型低轨卫星互联网星座项目,计划在2019年至2024年间在太空搭建由约1.2万颗卫星组成的“星链”网络,其中1584颗将部署在地球上空550千米处的近地轨道,并从2020年开始工作。该卫星仍在工作。
2D轨道图
3D轨道图
轨道高度分析图
轨道倾角分析图
轨道综合分析图
查看轨道综合分析图
与全量物体交会距离演化趋势
与全量物体交会风险概率演化趋势